FW5704 Weather Reports


Display with metric or nautical units.
time (UTC)temp
F
wind
direction
speed
MPH
gust
MPH
rain 1hr
in
rain 24hr
in
rain mn
in
humidity
%
barometer
mb
20200403232033 68 0 1.0 7.0 0.00 0.00 0.00 28 1014.1
20200403231614 69 251 1.0 10.0 0.00 0.00 0.00 27 1014.0
20200403231031 69 274 4.0 11.0 0.00 0.00 0.00 27 1014.0
20200403230544 70 254 5.0 11.0 0.00 0.00 0.00 27 1014.0
20200403230044 70 279 5.0 13.0 0.00 0.00 0.00 27 1014.0
20200403225534 70 271 6.0 13.0 0.00 0.00 0.00 26 1014.2
20200403225109 70 267 4.0 12.0 0.00 0.00 0.00 27 1014.1
20200403224544 71 226 4.0 13.0 0.00 0.00 0.00 26 1014.2
20200403224034 71 263 5.0 13.0 0.00 0.00 0.00 26 1014.1
20200403223544 72 319 3.0 9.0 0.00 0.00 0.00 26 1014.0
20200403223114 72 267 3.0 9.0 0.00 0.00 0.00 26 1014.1
20200403222534 72 291 4.0 9.0 0.00 0.00 0.00 26 1013.9
20200403222035 72 237 5.0 13.0 0.00 0.00 0.00 27 1013.9
20200403221551 72 277 6.0 13.0 0.00 0.00 0.00 26 1013.9
20200403221042 72 246 5.0 12.0 0.00 0.00 0.00 27 1014.1
20200403220532 72 256 4.0 14.0 0.00 0.00 0.00 26 1014.1
20200403220154 72 259 6.0 14.0 0.00 0.00 0.00 25 1014.0
20200403215533 72 230 6.0 11.0 0.00 0.00 0.00 26 1013.9
20200403215041 72 298 5.0 15.0 0.00 0.00 0.00 26 1014.0
20200403214657 72 284 5.0 15.0 0.00 0.00 0.00 25 1013.9
20200403214038 72 214 5.0 12.0 0.00 0.00 0.00 25 1014.0
20200403213533 72 246 5.0 12.0 0.00 0.00 0.00 26 1014.0
20200403213104 72 276 7.0 12.0 0.00 0.00 0.00 25 1014.0
20200403212534 73 279 5.0 13.0 0.00 0.00 0.00 25 1013.9
20200403212034 73 286 6.0 13.0 0.00 0.00 0.00 24 1014.0
20200403211652 73 246 6.0 12.0 0.00 0.00 0.00 24 1014.0
20200403211034 74 286 5.0 12.0 0.00 0.00 0.00 23 1014.1
20200403210533 73 264 6.0 12.0 0.00 0.00 0.00 25 1013.9
20200403210052 74 227 6.0 13.0 0.00 0.00 0.00 24 1014.1
20200403205546 74 288 5.0 13.0 0.00 0.00 0.00 23 1014.0
20200403205053 74 247 5.0 11.0 0.00 0.00 0.00 23 1014.0
20200403204605 74 295 5.0 15.0 0.00 0.00 0.00 22 1014.1
20200403204034 74 261 7.0 15.0 0.00 0.00 0.00 22 1013.9
20200403203530 74 300 5.0 12.0 0.00 0.00 0.00 22 1014.0
20200403203040 74 249 7.0 12.0 0.00 0.00 0.00 22 1014.1
20200403202534 75 242 5.0 10.0 0.00 0.00 0.00 22 1014.1
20200403202037 75 271 4.0 11.0 0.00 0.00 0.00 17 1014.2
20200403201624 75 257 4.0 11.0 0.00 0.00 0.00 18 1014.1
20200403201041 75 273 6.0 11.0 0.00 0.00 0.00 20 1014.2
20200403200534 75 237 5.0 11.0 0.00 0.00 0.00 20 1014.2
20200403200047 75 264 4.0 11.0 0.00 0.00 0.00 17 1014.4
20200403195534 75 252 5.0 12.0 0.00 0.00 0.00 18 1014.5
20200403195035 75 287 6.0 12.0 0.00 0.00 0.00 18 1014.4
20200403194712 75 298 8.0 12.0 0.00 0.00 0.00 19 1014.5
20200403194034 75 211 6.0 10.0 0.00 0.00 0.00 17 1014.5
20200403193535 76 280 2.0 10.0 0.00 0.00 0.00 17 1014.7
20200403193057 75 0 3.0 10.0 0.00 0.00 0.00 16 1014.7
20200403192535 76 275 4.0 10.0 0.00 0.00 0.00 17 1014.8
20200403192039 76 313 2.0 9.0 0.00 0.00 0.00 18 1014.7
20200403191551 76 136 3.0 6.0 0.00 0.00 0.00 18 1014.6
20200403191038 76 93 2.0 7.0 0.00 0.00 0.00 19 1014.5
20200403190532 75 48 2.0 7.0 0.00 0.00 0.00 20 1014.7
20200403190105 76 221 2.0 7.0 0.00 0.00 0.00 18 1014.6
20200403185534 75 325 2.0 9.0 0.00 0.00 0.00 18 1014.7
20200403185034 75 90 3.0 9.0 0.00 0.00 0.00 20 1014.6
20200403184554 76 104 0.0 6.0 0.00 0.00 0.00 21 1014.9
20200403184039 74 90 2.0 6.0 0.00 0.00 0.00 19 1015.0
20200403183541 75 117 1.0 9.0 0.00 0.00 0.00 20 1015.2
20200403183127 74 240 1.0 9.0 0.00 0.00 0.00 21 1015.3
20200403182532 75 224 2.0 7.0 0.00 0.00 0.00 22 1015.3
20200403182042 74 98 1.0 7.0 0.00 0.00 0.00 24 1015.3
20200403181640 72 196 2.0 7.0 0.00 0.00 0.00 24 1015.3
20200403181033 72 244 3.0 7.0 0.00 0.00 0.00 22 1015.4
20200403180535 72 311 2.0 8.0 0.00 0.00 0.00 24 1015.4
20200403180112 72 274 3.0 9.0 0.00 0.00 0.00 24 1015.5
20200403175531 71 274 4.0 10.0 0.00 0.00 0.00 25 1015.7
20200403175045 70 343 4.0 10.0 0.00 0.00 0.00 26 1015.7
20200403174551 70 279 4.0 9.0 0.00 0.00 0.00 26 1015.7
20200403174033 70 240 4.0 9.0 0.00 0.00 0.00 26 1015.8
20200403173547 70 294 3.0 9.0 0.00 0.00 0.00 27 1015.8
20200403173116 69 262 3.0 9.0 0.00 0.00 0.00 27 1016.0
20200403172533 69 294 4.0 9.0 0.00 0.00 0.00 27 1016.0
20200403172042 68 279 3.0 8.0 0.00 0.00 0.00 27 1016.1
20200403171554 67 269 4.0 8.0 0.00 0.00 0.00 32 1016.2
20200403171032 67 264 3.0 8.0 0.00 0.00 0.00 31 1016.3
20200403170536 66 261 2.0 7.0 0.00 0.00 0.00 32 1016.4
20200403170120 65 280 2.0 7.0 0.00 0.00 0.00 30 1016.5
20200403165533 65 255 2.0 7.0 0.00 0.00 0.00 31 1016.5
20200403165032 65 277 2.0 6.0 0.00 0.00 0.00 33 1016.6
20200403164625 64 179 2.0 5.0 0.00 0.00 0.00 35 1016.7
20200403164040 64 180 1.0 5.0 0.00 0.00 0.00 36 1017.0
20200403163658 64 213 1.0 4.0 0.00 0.00 0.00 36 1017.0
20200403163144 63 240 1.0 6.0 0.00 0.00 0.00 37 1017.1
20200403162532 62 254 2.0 8.0 0.00 0.00 0.00 36 1017.3
20200403162054 62 226 2.0 8.0 0.00 0.00 0.00 40 1017.5
20200403161619 61 292 2.0 7.0 0.00 0.00 0.00 39 1017.5
20200403161043 61 279 3.0 7.0 0.00 0.00 0.00 39 1017.7
20200403160533 60 286 2.0 7.0 0.00 0.00 0.00 41 1017.8
20200403160048 60 234 2.0 8.0 0.00 0.00 0.00 41 1017.8
20200403155538 59 265 3.0 8.0 0.00 0.00 0.00 45 1017.9
20200403155042 59 254 3.0 10.0 0.00 0.00 0.00 47 1018.0
20200403154537 59 265 4.0 10.0 0.00 0.00 0.00 48 1017.9
20200403154030 58 250 3.0 8.0 0.00 0.00 0.00 50 1018.0
20200403153533 58 277 2.0 8.0 0.00 0.00 0.00 50 1018.1
20200403153058 58 297 2.0 7.0 0.00 0.00 0.00 46 1018.2
20200403152532 57 277 4.0 7.0 0.00 0.00 0.00 50 1018.2
20200403152031 57 281 2.0 7.0 0.00 0.00 0.00 51 1018.3
20200403151552 56 255 3.0 7.0 0.00 0.00 0.00 51 1018.3
20200403151043 56 265 3.0 7.0 0.00 0.00 0.00 49 1018.4
20200403150538 55 250 2.0 7.0 0.00 0.00 0.00 52 1018.3
20200403150100 55 264 3.0 6.0 0.00 0.00 0.00 53 1018.3
20200403145532 54 271 1.0 5.0 0.00 0.00 0.00 53 1018.3
20200403145032 54 234 2.0 4.0 0.00 0.00 0.00 50 1018.2
20200403144558 54 225 1.0 4.0 0.00 0.00 0.00 52 1018.3
20200403144034 53 275 2.0 7.0 0.00 0.00 0.00 52 1018.4
20200403143542 52 238 2.0 7.0 0.00 0.00 0.00 56 1018.5
20200403143132 52 238 2.0 6.0 0.00 0.00 0.00 55 1018.5
20200403142541 52 254 2.0 6.0 0.00 0.00 0.00 57 1018.5
20200403142035 51 266 2.0 4.0 0.00 0.00 0.00 57 1018.5
20200403141623 51 283 2.0 4.0 0.00 0.00 0.00 59 1018.4
20200403141031 50 243 1.0 4.0 0.00 0.00 0.00 60 1018.4
20200403140535 50 277 1.0 4.0 0.00 0.00 0.00 59 1018.4
20200403140117 49 270 1.0 4.0 0.00 0.00 0.00 59 1018.3
20200403135539 49 273 1.0 3.0 0.00 0.00 0.00 60 1018.4
20200403135032 48 246 0.0 3.0 0.00 0.00 0.00 60 1018.3
20200403134631 48 0 0.0 3.0 0.00 0.00 0.00 63 1018.3
20200403134036 47 233 0.0 3.0 0.00 0.00 0.00 63 1018.3
20200403133537 46 0 0.0 3.0 0.00 0.00 0.00 64 1018.2
20200403133102 46 267 0.0 2.0 0.00 0.00 0.00 67 1018.1
20200403132534 45 266 0.0 2.0 0.00 0.00 0.00 71 1018.1
20200403132036 44 271 1.0 2.0 0.00 0.00 0.00 71 1018.2
20200403131645 44 269 0.0 2.0 0.00 0.00 0.00 72 1018.0
20200403131031 43 263 0.0 2.0 0.00 0.00 0.00 72 1017.9
20200403130538 43 245 0.0 2.0 0.00 0.00 0.00 73 1017.9
20200403130105 42 0 0.0 1.0 0.00 0.00 0.00 74 1017.9
20200403125536 41 0 0.0 1.0 0.00 0.00 0.00 77 1017.9
20200403125032 41 5 0.0 1.0 0.00 0.00 0.00 77 1017.8
20200403124540 40 0 0.0 1.0 0.00 0.00 0.00 79 1017.7
20200403124033 40 0 0.0 1.0 0.00 0.00 0.00 79 1017.6
20200403123533 39 0 0.0 1.0 0.00 0.00 0.00 78 1017.5
20200403123111 40 0 0.0 1.0 0.00 0.00 0.00 78 1017.5
20200403122533 40 0 0.0 1.0 0.00 0.00 0.00 79 1017.4
20200403122035 39 0 0.0 0.0 0.00 0.00 0.00 76 1017.3
20200403121549 39 0 0.0 0.0 0.00 0.00 0.00 78 1017.4
20200403121037 38 0 0.0 0.0 0.00 0.00 0.00 79 1017.4
20200403120531 38 0 0.0 0.0 0.00 0.00 0.00 79 1017.3
20200403120054 38 0 0.0 1.0 0.00 0.00 0.00 81 1017.2
20200403115606 38 0 0.0 1.0 0.00 0.00 0.00 81 1017.3
20200403115036 37 0 0.0 1.0 0.00 0.00 0.00 80 1017.2
20200403114553 37 0 0.0 1.0 0.00 0.00 0.00 80 1017.0
20200403114035 37 0 0.0 0.0 0.00 0.00 0.00 82 1017.2
20200403113538 37 0 0.0 0.0 0.00 0.00 0.00 81 1017.2
20200403113055 37 0 0.0 0.0 0.00 0.00 0.00 80 1017.2
20200403112534 37 0 0.0 1.0 0.00 0.00 0.00 80 1017.2
20200403112034 37 0 0.0 1.0 0.00 0.00 0.00 80 1017.3
20200403111537 37 0 0.0 1.0 0.00 0.00 0.00 80 1017.2
20200403111036 37 0 0.0 1.0 0.00 0.00 0.00 80 1017.3
20200403110534 37 0 0.0 0.0 0.00 0.00 0.00 81 1017.2
20200403110050 37 0 0.0 2.0 0.00 0.00 0.00 81 1017.1
20200403105532 37 0 0.0 2.0 0.00 0.00 0.00 80 1016.8
20200403105036 37 40 0.0 0.0 0.00 0.00 0.00 80 1016.7
20200403104549 38 0 0.0 2.0 0.00 0.00 0.00 79 1016.8
20200403104037 38 0 0.0 2.0 0.00 0.00 0.00 78 1016.6
20200403103533 38 35 0.0 2.0 0.00 0.00 0.00 78 1016.6
20200403103149 37 44 0.0 2.0 0.00 0.00 0.00 80 1016.6
20200403102555 37 103 0.0 2.0 0.00 0.00 0.00 80 1016.5
20200403102031 37 130 0.0 2.0 0.00 0.00 0.00 81 1016.4
20200403101627 37 0 0.0 1.0 0.00 0.00 0.00 81 1016.4
20200403101037 37 0 0.0 1.0 0.00 0.00 0.00 81 1016.4
20200403100540 37 0 0.0 1.0 0.00 0.00 0.00 80 1016.4
20200403100133 37 0 0.0 0.0 0.00 0.00 0.00 78 1016.2
20200403095533 38 0 0.0 2.0 0.00 0.00 0.00 79 1016.1
20200403095037 38 0 0.0 2.0 0.00 0.00 0.00 78 1016.1
20200403094605 37 0 0.0 1.0 0.00 0.00 0.00 78 1016.0
20200403094033 38 0 0.0 1.0 0.00 0.00 0.00 77 1016.1
20200403093531 38 0 0.0 1.0 0.00 0.00 0.00 77 1016.1
20200403093051 39 0 0.0 2.0 0.00 0.00 0.00 75 1016.2
20200403092558 40 0 0.0 2.0 0.00 0.00 0.00 73 1016.2
20200403092038 39 110 0.0 2.0 0.00 0.00 0.00 75 1016.2
20200403091041 39 0 1.0 2.0 0.00 0.00 0.00 76 1016.3
20200403090530 38 89 1.0 2.0 0.00 0.00 0.00 79 1016.4
20200403090057 39 0 0.0 1.0 0.00 0.00 0.00 75 1016.2
20200403085539 39 0 0.0 1.0 0.00 0.00 0.00 75 1016.3
20200403085036 39 0 0.0 2.0 0.00 0.00 0.00 74 1016.2
20200403084620 40 0 0.0 2.0 0.00 0.00 0.00 73 1016.3
20200403084040 40 20 0.0 1.0 0.00 0.00 0.00 73 1016.3
20200403083532 40 0 0.0 1.0 0.00 0.00 0.00 72 1016.3
20200403083107 40 0 0.0 1.0 0.00 0.00 0.00 72 1016.4
20200403082537 40 0 0.0 1.0 0.00 0.00 0.00 72 1016.3
20200403082034 40 0 0.0 0.0 0.00 0.00 0.00 74 1016.3
20200403081609 40 0 0.0 2.0 0.00 0.00 0.00 74 1016.4
20200403081054 40 0 0.0 2.0 0.00 0.00 0.00 74 1016.4
20200403080553 39 76 0.0 1.0 0.00 0.00 0.00 74 1016.4
20200403080045 40 0 0.0 1.0 0.00 0.00 0.00 73 1016.5
20200403075533 41 0 0.0 1.0 0.00 0.00 0.00 72 1016.4
20200403075034 41 0 0.0 1.0 0.00 0.00 0.00 71 1016.3
20200403074633 40 0 0.0 2.0 0.00 0.00 0.00 71 1016.3
20200403074035 41 78 0.0 2.0 0.00 0.00 0.00 73 1016.4
20200403073535 41 0 0.0 1.0 0.00 0.00 0.00 71 1016.4
20200403073103 40 0 0.0 1.0 0.00 0.00 0.00 71 1016.4
20200403072530 41 0 0.0 1.0 0.00 0.00 0.00 73 1016.3
20200403072038 41 0 0.0 1.0 0.00 0.00 0.00 72 1016.4
20200403071601 40 0 0.0 2.0 0.00 0.00 0.00 72 1016.4
20200403071041 40 0 0.0 2.0 0.00 0.00 0.00 72 1016.4
20200403070533 41 45 0.0 2.0 0.00 0.00 0.00 71 1016.4
20200403070110 41 0 0.0 1.0 0.00 0.00 0.00 71 1016.4
20200403065535 40 84 0.0 2.0 0.00 0.00 0.00 72 1016.4
20200403065039 40 0 0.0 2.0 0.00 0.00 0.00 72 1016.5
20200403064554 41 327 0.0 2.0 0.00 0.00 0.00 72 1016.6
20200403064038 41 327 0.0 2.0 0.00 0.00 0.00 71 1016.4
20200403063555 41 0 0.0 1.0 0.00 0.00 0.00 71 1016.5
20200403063104 41 319 0.0 2.0 0.00 0.00 0.00 71 1016.6
20200403062537 41 331 0.0 2.0 0.00 0.00 0.00 70 1016.4
20200403062035 41 344 0.0 2.0 0.00 0.00 0.00 69 1016.4
20200403061538 42 0 0.0 2.0 0.00 0.00 0.00 69 1016.5
20200403061032 42 344 0.0 2.0 0.00 0.00 0.00 69 1016.6
20200403060533 42 0 0.0 2.0 0.00 0.00 0.00 70 1016.7
20200403060200 42 24 0.0 2.0 0.00 0.00 0.00 68 1016.7
20200403055543 42 0 0.0 2.0 0.00 0.00 0.00 68 1016.8
20200403055031 42 26 0.0 1.0 0.00 0.00 0.00 69 1016.9
20200403054602 42 0 0.0 0.0 0.00 0.00 0.00 68 1017.0
20200403054032 42 0 0.0 0.0 0.00 0.00 0.00 67 1017.0
20200403053533 43 0 0.0 0.0 0.00 0.00 0.00 66 1017.0
20200403053144 43 0 0.0 0.0 0.00 0.00 0.00 66 1016.9
20200403052531 42 0 0.0 2.0 0.00 0.00 0.00 66 1017.0
20200403052032 43 0 0.0 3.0 0.00 0.00 0.00 67 1017.0
20200403051605 42 16 1.0 3.0 0.00 0.00 0.00 67 1017.2
20200403051043 43 79 0.0 2.0 0.00 0.00 0.00 66 1017.3
20200403050532 43 10 0.0 1.0 0.00 0.00 0.00 65 1017.4
20200403050104 44 0 0.0 1.0 0.00 0.00 0.00 63 1017.4
20200403045534 44 0 0.0 1.0 0.00 0.00 0.00 64 1017.5
20200403045038 44 0 0.0 2.0 0.00 0.00 0.00 64 1017.4
20200403044646 44 0 0.0 2.0 0.00 0.00 0.00 63 1017.5
20200403044030 44 5 1.0 2.0 0.00 0.00 0.00 62 1017.5
20200403043533 44 0 0.0 0.0 0.00 0.00 0.00 63 1017.5
20200403043107 44 0 0.0 0.0 0.00 0.00 0.00 63 1017.5
20200403042533 45 0 0.0 1.0 0.00 0.00 0.00 62 1017.5
20200403042035 44 0 0.0 1.0 0.00 0.00 0.00 62 1017.4
20200403041610 45 32 0.0 1.0 0.00 0.00 0.00 62 1017.5
20200403041030 45 31 0.0 2.0 0.00 0.00 0.00 61 1017.4
20200403040532 44 0 0.0 2.0 0.00 0.00 0.00 63 1017.5
20200403040043 44 0 0.0 1.0 0.00 0.00 0.00 63 1017.5
20200403035531 45 67 0.0 1.0 0.00 0.00 0.00 63 1017.4
20200403035031 46 0 0.0 1.0 0.00 0.00 0.00 60 1017.3
20200403034707 46 0 0.0 0.0 0.00 0.00 0.00 61 1017.5
20200403034031 46 0 0.0 1.0 0.00 0.00 0.00 60 1017.3
20200403033534 46 0 0.0 2.0 0.00 0.00 0.00 61 1017.4
20200403033047 45 0 0.0 2.0 0.00 0.00 0.00 60 1017.4
20200403032536 46 76 0.0 2.0 0.00 0.00 0.00 62 1017.4
20200403032036 46 337 0.0 2.0 0.00 0.00 0.00 60 1017.4
20200403031643 47 0 1.0 2.0 0.00 0.00 0.00 58 1017.3
20200403031033 47 0 0.0 2.0 0.00 0.00 0.00 61 1017.2
20200403030536 47 0 0.0 2.0 0.00 0.00 0.00 58 1017.2
20200403030036 46 0 0.0 2.0 0.00 0.00 0.00 60 1017.3
20200403025533 47 0 0.0 2.0 0.00 0.00 0.00 60 1017.3
20200403025050 47 55 1.0 2.0 0.00 0.00 0.00 59 1017.3
20200403024533 47 0 0.0 2.0 0.00 0.00 0.00 58 1017.3
20200403024031 47 33 0.0 2.0 0.00 0.00 0.00 59 1017.3
20200403023535 47 63 0.0 2.0 0.00 0.00 0.00 61 1017.3
20200403023239 47 45 1.0 2.0 0.00 0.00 0.00 62 1017.3
20200403022535 48 0 0.0 2.0 0.00 0.00 0.00 61 1017.2
20200403022032 47 0 0.0 2.0 0.00 0.00 0.00 59 1017.4
20200403021604 48 5 0.0 2.0 0.00 0.00 0.00 57 1017.4
20200403021038 48 0 0.0 2.0 0.00 0.00 0.00 56 1017.4
20200403020533 49 34 0.0 2.0 0.00 0.00 0.00 56 1017.1
20200403020120 49 42 0.0 2.0 0.00 0.00 0.00 56 1017.2
20200403015534 49 0 0.0 2.0 0.00 0.00 0.00 56 1017.2
20200403015032 48 323 0.0 2.0 0.00 0.00 0.00 58 1017.2
20200403014552 49 352 1.0 3.0 0.00 0.00 0.00 57 1017.0
20200403014111 49 46 0.0 3.0 0.00 0.00 0.00 57 1017.0
20200403013532 50 57 0.0 2.0 0.00 0.00 0.00 57 1017.1
20200403013035 49 347 0.0 2.0 0.00 0.00 0.00 56 1017.0
20200403012545 50 0 0.0 2.0 0.00 0.00 0.00 57 1017.0
20200403012031 50 55 1.0 2.0 0.00 0.00 0.00 56 1016.9
20200403011558 50 51 1.0 2.0 0.00 0.00 0.00 56 1016.9
20200403011101 50 51 1.0 2.0 0.00 0.00 0.00 55 1016.8
20200403010532 51 51 0.0 2.0 0.00 0.00 0.00 56 1016.9
20200403010111 51 0 0.0 2.0 0.00 0.00 0.00 54 1016.7
20200403005604 52 0 0.0 0.0 0.00 0.00 0.00 52 1016.6
20200403005049 52 0 0.0 1.0 0.00 0.00 0.00 54 1016.6
20200403004540 53 0 0.0 1.0 0.00 0.00 0.00 51 1016.6
20200403004037 53 0 0.0 1.0 0.00 0.00 0.00 50 1016.5
20200403003537 53 0 0.0 1.0 0.00 0.00 0.00 49 1016.4
20200403003058 54 0 0.0 0.0 0.00 0.00 0.00 51 1016.4
20200403002547 54 0 0.0 0.0 0.00 0.00 0.00 50 1016.3
20200403002048 54 0 0.0 0.0 0.00 0.00 0.00 49 1016.3
20200403001557 55 0 0.0 2.0 0.00 0.00 0.00 47 1016.3
20200403001033 56 0 0.0 3.0 0.00 0.00 0.00 46 1016.3
20200403000533 56 0 0.0 3.0 0.00 0.00 0.00 45 1016.3
20200403000040 57 0 0.0 2.0 0.00 0.00 0.00 44 1016.3
20200402235533 57 0 0.0 2.0 0.00 0.00 0.00 44 1016.2
20200402235100 57 0 0.0 3.0 0.00 0.00 0.00 45 1016.1
20200402234620 58 140 0.0 6.0 0.00 0.00 0.00 42 1016.0
20200402234030 58 0 1.0 6.0 0.00 0.00 0.00 41 1016.0
20200402233533 59 84 1.0 3.0 0.00 0.00 0.00 40 1016.0
20200402233116 60 0 0.0 2.0 0.00 0.00 0.00 37 1016.0
20200402232538 60 0 0.0 2.0 0.00 0.00 0.00 33 1015.9